K1ADK-1 Weather Reports


time (UTC)temp
F
wind
direction
speed
knots
gust
knots
rain 1hr
in
rain 24hr
in
rain mn
in
humidity
%
barometer
mb
20260506162516 60 225 7.0 12.2 0.00 0.00 0.00 82 1010.0
20260506161516 60 203 5.2 10.4 0.00 0.00 0.00 82 1010.0
20260506160536 60 203 6.1 11.3 0.00 0.00 0.00 81 1009.9
20260506155516 61 203 6.1 14.8 0.00 0.00 0.00 80 1010.0
20260506154516 61 203 6.1 12.2 0.00 0.00 0.00 79 1010.0
20260506153516 61 203 7.0 15.6 0.00 0.00 0.00 78 1010.2
20260506152517 61 203 7.0 11.3 0.00 0.00 0.00 78 1010.1
20260506151516 61 203 7.0 13.9 0.00 0.00 0.00 79 1010.2
20260506150556 61 203 7.8 17.4 0.00 0.00 0.00 78 1009.9
20260506145516 62 203 7.0 14.8 0.00 0.00 0.00 78 1009.8
20260506144516 62 203 6.1 14.8 0.00 0.00 0.00 78 1009.7
20260506143516 62 203 7.8 15.6 0.00 0.00 0.00 78 1009.9
20260506142516 62 203 5.2 11.3 0.00 0.00 0.00 78 1010.1
20260506141516 62 203 6.1 12.2 0.00 0.00 0.00 78 1010.2
20260506140516 62 180 8.7 15.6 0.00 0.00 0.00 78 1010.1
20260506135516 62 203 5.2 15.6 0.00 0.00 0.00 79 1010.2
20260506134516 61 203 7.8 20.0 0.00 0.00 0.00 79 1010.4
20260506133516 61 203 6.1 13.0 0.00 0.00 0.00 79 1010.4
20260506132516 61 203 6.1 14.8 0.00 0.00 0.00 80 1010.4
20260506131516 61 180 6.1 13.0 0.00 0.00 0.00 80 1010.2
20260506130536 61 203 7.8 20.0 0.00 0.00 0.00 80 1010.3
20260506125516 61 225 6.1 13.9 0.00 0.00 0.00 80 1010.3
20260506124516 61 203 5.2 13.9 0.00 0.00 0.00 79 1010.1
20260506123516 61 203 6.1 12.2 0.00 0.00 0.00 79 1010.5
20260506122516 61 203 7.0 15.6 0.00 0.00 0.00 80 1010.4
20260506121516 60 203 7.8 16.5 0.00 0.00 0.00 81 1010.7
20260506120516 60 203 7.0 13.9 0.00 0.00 0.00 82 1010.6
20260506115516 60 203 6.1 13.0 0.00 0.00 0.00 82 1010.6
20260506114536 59 203 7.0 13.0 0.00 0.00 0.00 83 1010.4
20260506113516 58 203 7.0 13.0 0.00 0.00 0.00 85 1010.5
20260506112516 58 203 7.0 11.3 0.00 0.00 0.00 86 1010.5
20260506111516 57 203 5.2 10.4 0.00 0.00 0.00 87 1010.6
20260506110556 57 203 6.1 11.3 0.00 0.00 0.00 87 1010.7
20260506105516 57 203 7.8 17.4 0.00 0.00 0.00 87 1010.6
20260506104516 57 203 6.1 13.9 0.00 0.00 0.00 87 1010.7
20260506103516 57 203 5.2 13.9 0.00 0.00 0.00 88 1010.6
20260506102516 56 203 5.2 12.2 0.00 0.00 0.00 88 1010.5
20260506101516 56 203 4.3 7.8 0.00 0.00 0.00 88 1010.6
20260506100516 56 203 7.0 13.9 0.00 0.00 0.00 87 1010.5
20260506095515 56 203 6.1 20.9 0.00 0.00 0.00 87 1010.3
20260506094515 56 203 5.2 11.3 0.00 0.00 0.00 87 1010.2
20260506093515 56 203 5.2 13.0 0.00 0.00 0.00 87 1010.3
20260506092515 56 180 5.2 12.2 0.00 0.00 0.00 87 1010.3
20260506091556 56 203 6.1 13.0 0.00 0.00 0.00 87 1010.3
20260506090515 56 180 5.2 12.2 0.00 0.00 0.00 86 1010.5
20260506085516 56 180 6.1 15.6 0.00 0.00 0.00 86 1010.5
20260506084535 56 203 6.1 11.3 0.00 0.00 0.00 86 1010.6
20260506083515 56 203 6.1 12.2 0.00 0.00 0.00 86 1010.8
20260506081515 56 203 5.2 11.3 0.00 0.00 0.00 85 1010.7
20260506080515 57 203 5.2 11.3 0.00 0.00 0.00 85 1010.7
20260506073515 57 203 7.0 13.9 0.00 0.00 0.00 84 1010.8
20260506072535 57 203 5.2 9.6 0.00 0.00 0.00 84 1011.0
20260506071515 57 203 7.0 15.6 0.00 0.00 0.00 84 1010.9
20260506070515 57 203 6.1 13.0 0.00 0.00 0.00 84 1011.0
20260506062515 57 203 6.1 17.4 0.00 0.00 0.00 83 1010.9
20260506061515 58 203 6.1 19.1 0.00 0.00 0.00 82 1010.9
20260506060515 58 203 5.2 11.3 0.00 0.00 0.00 82 1010.8
20260506050515 59 203 7.0 16.5 0.00 0.00 0.00 80 1011.2
20260506044535 59 203 7.0 17.4 0.00 0.00 0.00 79 1011.2
20260506043535 59 203 7.8 16.5 0.00 0.00 0.00 78 1011.3
20260506042535 60 203 7.0 13.9 0.00 0.00 0.00 77 1011.1
20260506041515 60 203 7.8 15.6 0.00 0.00 0.00 77 1011.2
20260506040517 60 225 7.8 15.6 0.00 0.00 0.00 76 1011.3
20260506035517 61 203 7.0 13.0 0.00 0.00 0.00 76 1011.2
20260506034517 61 203 7.0 16.5 0.00 0.00 0.00 75 1011.1
20260506033517 61 203 8.7 17.4 0.00 0.00 0.00 75 1011.1
20260506032517 61 203 7.0 18.2 0.00 0.00 0.00 75 1011.0
20260506031537 62 203 8.7 19.1 0.00 0.00 0.00 75 1011.0
20260506030537 62 203 9.6 19.1 0.00 0.00 0.00 74 1010.9
20260506025517 62 225 7.0 17.4 0.00 0.00 0.00 74 1011.0
20260506024517 62 203 9.6 19.1 0.00 0.00 0.00 73 1010.9
20260506023537 62 203 9.6 15.6 0.00 0.00 0.00 73 1010.9
20260506022517 63 203 9.6 24.3 0.00 0.00 0.00 72 1011.0
20260506021517 63 225 9.6 18.2 0.00 0.00 0.00 71 1011.2
20260506020517 63 203 9.6 22.6 0.00 0.00 0.00 70 1010.9
20260506015517 63 180 8.7 20.9 0.00 0.00 0.00 69 1010.9
20260506014517 63 203 9.6 18.2 0.00 0.00 0.00 69 1010.9
20260506013517 63 203 7.8 18.2 0.00 0.00 0.00 69 1010.7
20260506012517 63 203 8.7 19.1 0.00 0.00 0.00 68 1010.7
20260506011517 63 203 9.6 18.2 0.00 0.00 0.00 68 1010.6
20260506010517 64 203 7.8 20.9 0.00 0.00 0.00 67 1010.4
20260506005537 64 203 8.7 20.0 0.00 0.00 0.00 67 1010.3
20260506004537 64 225 10.4 20.0 0.00 0.00 0.00 67 1010.4
20260506003516 64 203 9.6 22.6 0.00 0.00 0.00 66 1010.3
20260506002517 64 225 7.8 18.2 0.00 0.00 0.00 65 1010.1
20260506001537 64 225 7.8 14.8 0.00 0.00 0.00 66 1010.0
20260506000516 64 203 7.0 14.8 0.00 0.00 0.00 65 1009.9
20260505235516 64 203 8.7 18.2 0.00 0.00 0.00 65 1010.0
20260505234536 65 203 8.7 19.1 0.00 0.00 0.00 64 1009.8
20260505233517 65 180 7.8 17.4 0.00 0.00 0.00 63 1009.5
20260505232517 65 203 9.6 20.9 0.00 0.00 0.00 62 1009.5
20260505231516 65 203 8.7 16.5 0.00 0.00 0.00 62 1009.4
20260505230517 66 203 9.6 20.9 0.00 0.00 0.00 61 1009.4
20260505225516 66 203 8.7 20.0 0.00 0.00 0.00 60 1009.3
20260505224517 66 203 10.4 17.4 0.00 0.00 0.00 59 1009.2
20260505223536 67 225 10.4 23.5 0.00 0.00 0.00 59 1009.1
20260505222517 67 203 11.3 24.3 0.00 0.00 0.00 58 1009.0
20260505221516 68 225 8.7 21.7 0.00 0.00 0.00 58 1009.1
20260505220517 68 225 7.8 18.2 0.00 0.00 0.00 58 1008.9
20260505215516 68 203 7.0 15.6 0.00 0.00 0.00 58 1009.0
20260505214517 68 203 7.8 18.2 0.00 0.00 0.00 58 1008.9
20260505213536 69 203 10.4 20.9 0.00 0.00 0.00 57 1008.8
20260505212516 69 203 7.8 17.4 0.00 0.00 0.00 58 1008.7
20260505211516 69 203 9.6 20.9 0.00 0.00 0.00 59 1008.7
20260505210516 69 203 8.7 18.2 0.00 0.00 0.00 58 1008.6
20260505205516 70 203 7.8 20.0 0.00 0.00 0.00 57 1008.6
20260505204516 70 225 6.1 18.2 0.00 0.00 0.00 57 1008.8
20260505203536 70 203 6.1 13.9 0.00 0.00 0.00 58 1008.7
20260505202516 71 203 4.3 10.4 0.00 0.00 0.00 57 1008.7
20260505201536 71 203 7.0 13.9 0.00 0.00 0.00 57 1008.8
20260505200516 71 203 7.8 15.6 0.00 0.00 0.00 57 1008.8
20260505195516 70 203 8.7 19.1 0.00 0.00 0.00 57 1008.8
20260505194536 70 203 7.8 17.4 0.00 0.00 0.00 57 1009.1
20260505193536 70 203 7.8 15.6 0.00 0.00 0.00 57 1009.1
20260505192516 71 203 8.7 17.4 0.00 0.00 0.00 57 1009.3
20260505191516 70 180 7.0 13.0 0.00 0.00 0.00 58 1009.4
20260505190516 71 180 7.0 13.0 0.00 0.00 0.00 58 1009.6
20260505185516 71 180 8.7 16.5 0.00 0.00 0.00 57 1009.8
20260505184536 71 203 7.8 18.2 0.00 0.00 0.00 57 1009.8
20260505183516 71 203 9.6 21.7 0.00 0.00 0.00 57 1009.9
20260505182516 71 203 7.8 13.0 0.00 0.00 0.00 58 1009.9
20260505181516 71 203 6.1 13.0 0.00 0.00 0.00 58 1010.0
20260505180536 71 203 6.1 16.5 0.00 0.00 0.00 57 1010.3
20260505175516 71 180 7.8 13.9 0.00 0.00 0.00 58 1010.4
20260505174516 71 203 7.8 14.8 0.00 0.00 0.00 57 1010.3
20260505173516 72 203 4.3 13.0 0.00 0.00 0.00 58 1010.3
20260505172556 72 180 5.2 13.9 0.00 0.00 0.00 59 1010.4
20260505171516 72 203 7.8 16.5 0.00 0.00 0.00 55 1010.4
20260505170516 73 203 5.2 13.0 0.00 0.00 0.00 57 1010.4
20260505165516 72 180 7.0 14.8 0.00 0.00 0.00 56 1010.5
20260505164516 73 203 6.1 11.3 0.00 0.00 0.00 55 1010.5
20260505163516 73 180 6.1 11.3 0.00 0.00 0.00 55 1010.8